Voltar ao catálogo

STARLINK-33991

AtivoComunicaçõesVLEO
NORAD 64122·PAYLOAD·🇺🇸 United States

Lançado May 23, 2025 de Vandenberg Space Force Base

Loading…

Próximas Passagens (próximas 24 horas)

TLE

AtualizadoSource: CelesTrak SupGP

Época: Sep 15, 2026, 03:02 UTC

1 64122C 25110AC  26258.12687500 -.00049038  00000+0 -15769-2 0  2589
2 64122  53.1575 225.0969 0001464  94.1218 163.2312 15.31726305    18

Acompanhe STARLINK-33991 em tempo real com AllMySat

Download on the App Store